Weather in Gremyachevo

Russia / Kaluga Oblast     54°14′32″N   36°15′17″E
temp.,
°C
wind,
m/s
gust,
m/s
humid.,
%
clouds,
%
prec.,
mm/h
press.,
hPa
HPBL,
m
20 january, thu
thu2000:00−10ssw31097100 0.0 1014209
03:00−7ssw4119595 0.1 1013333
06:00−6ssw51195100 0.0 1010355
09:00−4ssw51294100 0.1 1009476
12:00−4s61493100 0.1 1007511
15:00−4s71492100 0.1 1005619
18:00−4s71592100 0.1 1003671
21:00−3s71492100 0.3 1002751
21 january, fri
fri2100:00−3s61395100 0.4 1002615
03:00−3s51195100 1.2 1001503
06:00−4s51194100 0.1 999478
09:00−4sse4996100 0.8 999438
12:00−4sse4896100 1.1 997393
15:00−3sw3688100 1.9 997511
18:00−8sse389532 0.0 998120
21:00−11se379897 0.0 998108
22 january, sat
sat2200:00−9se31096100 0.0 998268
03:00−5sse379687 0.5 998272
06:00−5s3896100 0.5 999367
09:00−6s379676 0.9 1002268
12:00−6s369387 0.1 1006334
15:00−6sse259564 0.1 1008218
18:00−13se1110079 0.0 10119
21:00−12ese119891 0.1 101412
23 january, sun
sun2300:00−14ese119983 0.1 101612
03:00−15ese119999 0.1 101810
06:00−16ese119978 0.1 10209
09:00−18ene1110090 0.1 10239
12:00−10ene129485 0.1 1025120
15:00−8ne239580 0.1 1026155
18:00−16ne2210072 0.0 102912
21:00−17nne2210094 0.0 103134
24 january, mon
mon2400:00−18ne2310098 0.0 103252
03:00−18n25100100 0.0 103174
06:00−16nne3899100 0.0 1031133
09:00−12nne4129599 0.1 1030285
12:00−9ne4893100 0.2 1029308
15:00−8nne369496 0.3 1028319
18:00−13nne229984 0.0 102835
21:00−14nne3410098 0.0 102755